Погода в Болдыревке

Россия / Амурская область     50°13′29″N   129°29′43″E
темп.,
°C
ветер,
м/с
пор.,
м/с
влажн.,
%
обл.,
%
осадки,
мм/ч
давл.,
гПа
погр.,
м
19 апреля, пн
пн1900:00+4ююв33690 0.0 100627
03:00+3ю337338 0.0 100530
06:00+3ю22733 0.0 100525
09:00+9зсз46500 0.0 1004586
12:00+8сз910508 0.0 10051164
15:00+8ссз912345 0.0 10061677
18:00+5сз913310 0.0 10081975
21:00+1сз814375 0.0 10111760
20 апреля, вт
вт2000:00−1сз916390 0.0 10131470
03:00−3сз917360 0.0 10131424
06:00−3сз917350 0.0 10131426
09:000сз1017280 0.0 10141592
12:00+4сз1014200 0.0 10151774
15:00+7сз812174 0.0 10141813
18:00+7сз59200 0.0 10141273
21:00+3сз11280 0.0 101610
21 апреля, ср
ср2100:00+2ююв22295 0.0 101613
03:00+1юв36400 0.0 101680
06:00+1юв410445 0.0 1017183
09:00+8ююв683623 0.0 1016350
12:00+15ю793031 0.0 1014828
15:00+20ююз69220 0.0 10121547
18:00+19ю49270 0.0 1011273
21:00+14ююв615397 0.0 1013304
22 апреля, чт
чт2200:00+12ююв514398 0.0 1013263
03:00+12ююв8183660 0.0 1012400
06:00+11ююв8164194 0.0 1013397
09:00+16ю8133999 0.0 1014972
12:00+19ююз71235100 0.0 10141566
15:00+21юз9133050 0.0 10151982
18:00+19юз6113841 0.0 10171622
21:00+14юз410565 0.0 1019226
23 апреля, пт
пт2300:00+12зюз512615 0.0 1022387
03:00+8с611597 0.0 1024456
06:00+6с5106153 0.0 1026449
09:00+6с6954100 0.0 1027644
12:00+6с793899 0.0 1029767
15:00+7ссз6831100 0.0 10281106
18:00+8ссз5824100 0.0 10281570
21:00+5с6112396 0.0 1029795